COSMOS 732

Satellite information

Favourite Embed

Satellite Type and Status

PAYLOADIN ORBIT

Key statistics

Satellite COSMOS 732 at a glance.

Uptime

18367

Days in orbit

Revolutions

≈ 12.6

Per day

Orbit

LEO

Low Earth Orbit

Inclination

74.0

Latest

Satellite identification and parameters

Extended collection of information and parameters for COSMOS 732.

Object identification

Identified? True

Debris? False

Object name: COSMOS 732

International designator: 1975-045A

Object number (NORAD): 7820

Object ID (CCSDS): 7820

Country: COMMONWEALTH OF INDEPENDENT STATES (CIS)

Current information (Y/N): Y

RCS size: MEDIUM

Orbital parameters

Period: 114.584 minutes

Inclination: 74.0213 deg

SMA: 7814.657 km

Apoapsis: 1470.217 km

Periapsis: 1402.827 km

RAAN: 13.4705 deg

Eccentricy: 0.00431176

Argument of periapsis: 253.5008 deg

Mean anomaly: 117.9603 deg

Mean motion: 12.56718096 rev/day

Mean motion (dot): -0.00000014 rev/day2

B* drag term: 0.000017106704 1/REarth

Two-line elements (TLE)

Creation date: Sept. 8, 2025, 6:18 p.m.

Reference frame: TEME

Reference center: EARTH

Epoch: Sept. 8, 2025, 3:03 p.m. UTC

TLE line 0: 0 COSMOS 732

TLE line 1: 1 07820U 75045A 25251.62739797 -.00000014 00000-0 17107-4 0 9999

TLE line 2: 2 07820 74.0213 13.4705 0043118 253.5008 117.9603 12.56718096306906

Live tracking on map

Real-time ground track for satellite COSMOS 732.

In-orbit conjunctions

There are no conjunctions computed for COSMOS 732, at the moment. Check back to stay up to date, as we update our databases every day.

Go to all conjunctions

Associated space launch

Military communications satellites

COSMOS 732 was lifted into orbit during the mission ‘Kosmos-3M | Strela-1M 89-96’, on board a Kosmos-3M space rocket.

The launch took place on May 28, 1975, 12:25 a.m. from 132/1 (132L).

For more information about the launch, click the button.

Launch to space Kosmos-3M | Strela-1M 89-96
Kosmos-3M | Strela-1M 89-96

Agency: N/A

Status: Launch Successful

Launch date: May 28, 1975, 12:25 a.m. UTC

Rocket: Kosmos-3M

Launch pad: 132/1 (132L)

Location: Plesetsk Cosmodrome, Russian Federation

...

Latest news about this satellite

There are no fresh news available about this satellite. Check back as we update our databases every day.


Newsletter sign-up

Weekly statistics, charts and insights to help you stay on top of the space industry.